www.pogodaiklimat.ru

Погода и климат >> Архив погоды >> Кувейт >> Остров Файлака


ПОГОДА Остров Файлака

  • Прогноз погоды Остров Файлака
  • Монитор погоды Остров Файлака

АРХИВ ПОГОДЫ Остров Файлака

Время (UTC), дата Ветер
(напр.,м/с)
 
Видим.   Явления Облачность Т
(С)
Тd
(С)
f
(%)
Тe
(С)
Тes
(С)
Комфортность P
(гПа)
Po
(гПа)
Тmin
(С)
Tmax
(С)
R
(мм)
R24
(мм)
S
(см)
06 17.02 З 4-5
{5}
н/о н/о +15.5 +8.4 63 +15 +15 1021.8 1021.2
09 17.02 З 4-6
{7}
н/о н/о +18.6 +7.7 49 +19 +19 1020.7 1020.1
12 17.02 СВ 2-3
{7}
н/о н/о +19.3 +7.2 45 +21 +21 комфорт 1018.3 1017.7
15 17.02 ЮВ 2-3
{4}
н/о н/о +16.1 +10.6 70 +16 +16 1018.0 1017.4
18 17.02 С 5-6
{7}
н/о н/о +16.2 +9.8 66 +15 +15 1018.9 1018.3
21 17.02 С 4-5
{6}
н/о н/о +15.2 +9.3 68 +14 +14 1018.4 1017.8 +9.9 +20.3
00 18.02 С 2-3
{6}
н/о н/о +12.8 +10.9 88 +12 +12 1017.8 1017.2
03 18.02 СЗ 3-4
{4}
н/о н/о +10.6 +8.9 89 +8 +8 1017.8 1017.2
06 18.02 СЗ 2-3
{4}
н/о н/о +16.5 +10.0 65 +17 +17 1018.7 1018.1
09 18.02 З 2-4
{6}
н/о н/о +19.2 +6.8 44 +20 +20 1017.4 1016.8
15 18.02 ЮВ 2-3
{6}
н/о н/о +16.0 +6.9 55 +16 +16 1013.6 1013.0
18 18.02 ЮЗ 2-3
{6}
н/о н/о +14.4 +9.2 71 +14 +14 1014.6 1014.0
21 18.02 СЗ 2-4
{4}
н/о н/о +13.5 +9.3 76 +13 +13 1013.1 1012.5 +10.4 +20.5
00 19.02 СВ 3-5
{7}
н/о н/о +14.7 +8.6 67 +14 +14 1013.1 1012.5
03 19.02 С 4-5
{5}
н/о н/о +14.3 +10.7 79 +13 +13 1013.6 1013.0
06 19.02 С 6-7
{7}
н/о н/о +14.7 +9.9 73 +13 +13 1015.0 1014.4
09 19.02 С 7-9
{11}
н/о н/о +16.9 +8.4 57 +16 +16 1015.5 1014.9
12 19.02 С 6-9
{12}
н/о н/о +19.4 +6.0 42 +20 +20 1014.5 1013.9
15 19.02 СЗ 7-9
{10}
н/о н/о +16.9 +6.6 51 +16 +16 1015.9 1015.3
18 19.02 СЗ 7-10
{10}
н/о н/о +15.5 +6.9 57 +14 +14 1018.2 1017.6
21 19.02 СЗ 4-6
{9}
н/о н/о +13.9 +8.0 68 +12 +12 1018.5 1017.9 +13.4 +19.6
00 20.02 СЗ 4-5
{9}
н/о н/о +11.5 +7.5 76 +9 +9 1018.5 1017.9
03 20.02 З 4-5
{6}
н/о н/о +10.6 +6.8 77 +8 +8 1019.3 1018.7
06 20.02 З 6-7
{7}
н/о н/о +14.1 +6.3 59 +12 +12 1021.1 1020.5
09 20.02 З 4-6
{7}
н/о н/о +18.6 +8.4 51 +19 +19 1020.6 1020.0
12 20.02 З 3-4
{7}
н/о н/о +20.6 +4.5 35 +22 +22 комфорт 1019.0 1018.4
15 20.02 Ю 2-2
{6}
н/о н/о +17.0 +6.1 49 +18 +18 1019.1 1018.5
18 20.02 СЗ 3-4
{6}
н/о н/о +14.2 +8.5 69 +13 +13 1020.6 1020.0
21 20.02 С 2-3
{5}
н/о н/о +13.7 +8.6 71 +13 +13 1020.8 1020.2 +10.1 +20.8
00 21.02 СЗ 1-1
{5}
н/о н/о +11.6 +8.5 81 +11 +11 1020.5 1019.9
03 21.02 СЗ 2-3
{3}
н/о н/о +11.8 +9.8 88 +11 +11 1021.0 1020.4
06 21.02 СЗ 3-4
{4}
н/о н/о +16.0 +6.0 51 +16 +16 1023.0 1022.4
09 21.02 СВ 2-3
{5}
н/о н/о +18.9 +9.4 54 +20 +20 1021.9 1021.3
12 21.02 В 4-6
{6}
н/о н/о +18.8 +7.9 49 +19 +19 1020.1 1019.5
15 21.02 В 3-5
{7}
н/о н/о +16.5 +10.1 66 +16 +16 1020.4 1019.8
18 21.02 Ю 3-5
{7}
н/о н/о +14.6 +11.4 81 +14 +14 1021.1 1020.5
21 21.02 Ю 3-4
{5}
н/о н/о +15.1 +12.2 83 +14 +14 1020.7 1020.1 +10.6 +20.0
00 22.02 Ю 1-1
{5}
н/о н/о +13.1 +11.3 89 +14 +14 1019.6 1019.0
03 22.02 ЮВ 3-3
{4}
н/о н/о +13.8 +12.2 90 +13 +13 1019.8 1019.2
06 22.02 Ю 4-5
{5}
н/о н/о +17.5 +13.3 76 +17 +17 1021.4 1020.8
09 22.02 Ю 2-3
{6}
н/о н/о +17.7 +10.6 63 +18 +18 1019.3 1018.7
12 22.02 ЮВ 3-5
{6}
н/о н/о +18.1 +8.3 53 +18 +18 1017.4 1016.8
15 22.02 В 4-6
{7}
н/о н/о +16.6 +11.3 71 +16 +16 1017.5 1016.9
18 22.02 ЮВ 2-3
{7}
н/о н/о +14.7 +11.5 81 +15 +15 1018.6 1018.0
21 22.02 В 4-5
{5}
н/о н/о +14.3 +12.0 86 +13 +13 1017.8 1017.2 +12.4 +19.0
00 23.02 В 3-4
{5}
н/о н/о +14.6 +12.2 86 +14 +14 1017.3 1016.7
03 23.02 В 4-5
{5}
н/о н/о +14.4 +12.4 88 +13 +13 1017.9 1017.3
06 23.02 В 6-9
{9}
н/о н/о +18.2 +12.6 70 +18 +18 1018.2 1017.6
09 23.02 ЮВ 6-10
{10}
н/о н/о +20.0 +12.5 62 +22 +22 комфорт 1017.6 1017.0
12 23.02 В 6-8
{10}
н/о н/о +19.2 +13.8 71 +20 +20 1015.9 1015.3
15 23.02 В 4-5
{8}
н/о н/о +17.4 +14.6 84 +17 +17 1016.0 1015.4
18 23.02 В 3-3
{8}
н/о н/о +15.9 +14.3 90 +15 +15 1016.8 1016.2
21 23.02 В 3-3
{3}
н/о н/о +15.8 +15.2 96 +15 +15 1016.8 1016.2 +14.1 +20.5
00 24.02 В 3-3
{4}
400 м туман н/о +15.7 +15.3 97 +15 +15 1015.8 1015.2
03 24.02 Ю 1-2
{4}
7000 м в посл. час туман {дымка} н/о +16.5 +16.1 97 +17 +17 1016.6 1016.0

 

Местоположение метеостанции Остров Файлака (Кувейт): широта 29.47 долгота 48.28 высота над уровнем моря 5 м.

В архиве по умолчанию представлена погода Остров Файлака за последнюю неделю. Архивные данные за месяц целиком и за предыдущие месяцы, начиная с января 2011 года, Вы можете получить, выбрав интересующий диапазон дат из раскрывающегося списка и нажав кнопку "Ввод!".


*Определитесь, кто Вы:
робот инопланетянин человек

Внимание! Время в таблицах - всемирное. Для получения местного времени необходимо прибавить поправку, которая равна 3 ч.

Смотрите также архив погоды в соседних городах и на ближайших метеорологических станциях:

Погода в Аль-Шуаиба (Кувейт) (22 км)
Погода в Кувейт Сити (Кувейт) (27 км)
Погода на Бубияне (Кувейт) (35 км)
Погода на Экспериментальной ферме (Кувейт) (39 км)
Погода в Эль-Кувейте (Кувейт) (41 км)
Погода на Метеостанции Sabriyah (Кувейт) (52 км)
Погода в Сулайбии (Кувейт) (59 км)
Погода в Эль-Фао (Ирак) (61 км)
Погода в Эль-Джахра (Кувейт) (61 км)
Погода в Порту Juluiah (Кувейт) (67 км)

Пояснения к столбцам:

Ветер - указаны скорость ветра в м/с - средняя за 10 мин, порывы в срок и между сроками (в фигурных скобках) и направление, откуда дует ветер: С - северный, СВ - северо-восточный, В - восточный, ЮВ - юго-восточный, Ю - южный, ЮЗ - юго-западный, З - западный, СЗ - северо-западный.
Видимость - горизонтальная дальность видимости в метрах или километрах. При видимости от 1 до 10 км при отсутствии осадков обычно наблюдается дымка, при ухудшении видимости до 1 км и менее - туман. В сухую погоду видимость может ухудшаться дымом, пылью или мглою.
Явления - указаны атмосферные явления, наблюдавшиеся в срок или в последний час перед сроком; фигурными скобками обозначены явления, наблюдавшиеся между сроками (за 1-3 часа до срока); квадратными скобками обозначены град или гололедные отложения с указанием их диаметра в мм.
Облачность - указаны через наклонную черту общая и нижняя облачность в баллах и высота нижней границы облаков в метрах; квадратными скобками обозначены формы облаков: Ci - перистые, Cs - перисто-слоистые, Cc - перисто-кучевые, Ac - высококучевые, As - высокослоистые, Sc - слоисто-кучевые, Ns - слоисто-дождевые, Cu - кучевые, Cb - кучево-дождевые. Подробнее классификацию облаков см. в Атласе облаков (PDF).
T - Температура воздуха - температура, измеренная на высоте 2 м над землей.
Td - Температура точки росы - температура, при понижении до которой содержащийся в воздухе водяной пар достигнет насыщения.
f - Относительная влажность воздуха - влажноcть воздуха, измеренная на высоте 2 м над землей.
Te - Эффективная температура - температура, которую ощущает одетый по сезону человек в тени. Характеристика душности погоды. При расчете учитывается влияние влажности воздуха и скорости ветра на теплоощущения человека.
Tes - Эффективная температура на солнце - температура, которую ощущает человек, с поправкой на солнечный нагрев. Характеристика знойности погоды. Зависит от высоты солнца над горизонтом, облачности и скорости ветра. Ночью, в пасмурную погоду, а также при ветре 12 м/с и более поправка равна нулю.
P - Атмосферное давление - приведенное к уровню моря атмосферное давление.
Po - Атмосферное давление - измеренное на уровне метеостанции атмосферное давление.
Tmin - Минимальная температура - минимум температуры воздуха на высоте 2 м над землей.
Tmax - Максимальная температура - максимум температуры воздуха на высоте 2 м над землей.
R - Количество осадков - Количество выпавших осадков за период времени, мм. При наведении курсора мыши на число - период времени, за который выпало указанное количество осадков.
R24 - Количество осадков - Количество выпавших осадков за 24 часа, мм.
S - Снежный покров - Высота снежного покрова, см. При наведении курсора мыши на число - состояние снежного покрова и степень покрытия местности в баллах.